STARLINK-11696, 64324

Orbit data source: Space-Track

STARLINK-11696, 64324 is a payload satellite owned by SpaceX/Seattle (US) in LEO that was launched on Tue, 10 Jun 2025 UTC via an FALCON 9 launch vehicle from the Air Force Eastern Test Range (AFETR). Payload-class satellites include a variety of spacecraft equipped with specific instruments for various scientific and technological missions. These include communications satellites like Starlink; space stations such as the ISS; scientific satellites like the Hubble; Earth observation satellites from companies like Planet Labs, Umbra, and HawkEye 360; GPS; miniature CubeSats for education and research; and military/defense satellites.

Loading next visibility...
Identifier
64324, 2025-124H
Orbit
LEO
Last TLE update
8 hours ago
Origin
Manufacturer
SpaceX/Seattle
Mission
Operational spacecraft
Bus & Motor
STARLINK V2M, Unknown motor
Mass
730 kg wet, ~700 kg dry
Launch date (UTC)
2025-06-10 (3 weeks ago)
Launch vehicle
FALCON 9
Launch site
Air Force Eastern Test Range (AFETR)
Object type
Payload
Rocket body
Debris
Shape & HBR
Unknown
Radar Cross Section
Large (>1 m²)

Expand to show TLE details & history

TLE from 8 hours ago
0 STARLINK-11696
1 64324U 25124H   25182.16668981  .00030754  00000-0  17944-3 0  9993
2 64324  43.0006 105.7911 0001822 272.6379 358.3899 15.77794349  4372
Epoch: 2025-07-01T04:00Z
TLE epoch observation values (Epoch: 2025-07-01T04:00:01.999Z)
Latitude
-43.15314°
Longitude
37.71833°
Altitude
348.777 km
Speed
7.701 km/s
True Right ascension
01h 08m 46s
True Declination
-42° 58' 16"
Sunlit
Object was in daylight at epoch
Visualization orbit readout
Latitude
34.24608°
Longitude
-102.38599°
Altitude
338.977 km
Speed
7.71 km/s
Apparent Right ascension
14h 06m 01s
Apparent Declination
-1° 55' 08"
Sunlit
Object is in full shadow
Visualization observer readout
Local Sidereal Time
00:08:41
Azimuth
317.449° NNW
Elevation
-43.61°
Doppler factor
1
Orbital elements
Apogee altitude
339.902 km
Perigee altitude
337.455 km
Semi-major axis
6,716.816 km
Eccentricity
0.00018
Inclination
43.0006°
RAAN
105.7911°
Arg. of periapsis
272.6379°
True anomaly
Unknown
Mean anomaly
358.3899°
Eccentric anomaly
Unknown
Mean motion
3.94274 °/min
Orbital period
91.31 mins
BSTAR
0.00017944
Loading maneuver chart data...
Loading SW <> Apogee altitude chart data...
Loading historical data...
Loading historical data...
Loading historical data...
Loading historical data...
Loading historical data...
Loading historical data...
Loading historical data...

STARLINK-11696 Visibility forecast

Observer location: undefined°, undefined°

Span
Click to sort rows by Start time (UTC) header in descending order
Start Az.
Max El. time (UTC)
Max El. Az.
Max El.
End time (UTC)
End Az.
4 mins2025-07-02 02:02:54.324Z297.935° NW2025-07-02 02:04:54.324Z39.088° NE38.247°2025-07-02 02:06:54.324Z89.129° E
|